CAPE
0 0 0 0 0 0 0 0 0 0 0 0 0 0 0 0 0 0 0 0 0 0 0 0 0 0 0 0 0 0 0 0 0 0 688 1787 1708 2177 1875 1781 2180 2244 2221 2350 2549 2578 2452 2362 2647 2581 2569 2396 2250 2190 1783 1480 1315 1425 1544 1400 1422 1344 1147 976 775 622 636 824 860 825 785 702 593 525 517 603 651 641 518 487 524 572 814 528 822 536
0 0 0 0 0 0 0 0 0 0 0 0 0 0 0 0 0 0 0 0 0 0 0 0 0 0 0 0 0 0 0 0 0 0 0 1248 1585 1493 1518 1278 1703 1709 1793 2136 2423 2613 2530 2447 2523 2478 2441 2323 2137 1954 1806 1472 1386 1435 1447 1525 1376 1409 1296 1016 775 640 638 750 756 755 609 660 482 413 498 841 754 476 548 498 540 605 769 781 798 913
0 0 0 0 0 0 0 0 0 0 0 0 0 0 0 0 0 0 0 0 0 0 0 0 0 0 0 0 0 0 0 0 0 0 0 1085 1314 1368 1256 1160 1130 1145 1789 2223 2442 2623 2550 2430 2423 2380 2347 2270 2115 1949 1693 1518 1523 1518 1474 1548 1528 1288 1225 948 784 572 693 610 557 596 625 566 404 463 654 922 894 602 637 507 507 538 628 934 792 984
0 0 0 0 0 0 0 0 0 0 0 0 0 0 0 0 0 0 0 0 0 0 0 0 0 0 0 0 0 0 0 0 0 0 0 935 1146 828 1061 1084 875 941 1648 2092 2243 2446 2446 2422 2374 2402 2381 2280 2144 1938 1864 1650 1564 1553 1498 1470 1554 1247 1034 902 525 565 652 674 624 726 653 672 541 462 807 947 656 788 630 416 656 486 629 819 778 920
0 0 0 0 0 0 0 0 0 0 0 0 0 0 0 0 0 0 0 0 0 0 0 0 0 0 0 0 0 0 0 0 0 0 0 0 1147 1086 945 908 936 880 1105 1538 1938 1948 2339 2436 2460 2409 2440 2332 2181 1909 1842 1811 1624 1585 1507 1425 1466 1191 1006 987 657 637 819 663 750 635 767 637 518 527 930 813 637 657 847 654 531 656 708 820 871 855
0 0 0 0 0 0 0 0 0 0 0 0 0 0 0 0 0 0 0 0 0 0 0 0 0 0 0 0 0 0 0 0 0 0 0 0 0 89 988 999 940 868 820 1378 2017 1952 2456 2505 2464 2448 2420 2314 2072 1774 1859 1814 1611 1552 1467 1321 1254 1093 1023 851 572 623 750 749 830 756 714 681 670 785 988 803 806 769 838 670 584 708 888 714 783 855
0 0 0 0 0 0 0 0 0 0 0 0 0 0 0 0 0 0 0 0 0 0 0 0 0 0 0 0 0 0 0 0 0 0 0 0 262 261 183 930 995 948 767 1266 1748 2137 2496 2485 2436 2384 2298 2170 1924 1740 1847 1782 1596 1520 1459 1331 1273 1124 866 736 816 625 719 751 917 774 708 707 745 777 639 594 781 1034 932 740 523 563 761 805 607 641
0 0 0 0 0 0 0 0 0 0 0 0 0 0 0 0 0 0 0 0 0 0 0 0 0 0 0 0 0 0 0 159 352 218 67 234 475 551 463 498 1045 974 873 1205 1567 2202 2566 2523 2394 2335 2243 2094 1914 1700 1831 1841 1568 1536 1481 1382 1271 1012 932 814 743 625 434 633 618 736 718 493 466 526 597 508 829 1074 952 797 894 1137 828 867 800 804
0 0 0 0 0 0 0 0 0 0 0 0 0 0 0 0 0 0 0 0 0 0 0 0 0 0 0 0 0 0 0 334 522 401 526 399 503 690 947 776 782 1120 910 1448 1693 2208 2552 2442 2407 2478 2414 2241 1976 1538 1781 1670 1555 1543 1509 1346 1216 1083 1008 888 731 644 524 497 742 821 676 537 527 517 485 576 506 720 863 1206 1023 1283 1141 969 849 549
0 0 0 0 0 0 0 0 0 0 0 0 0 0 0 0 0 0 0 0 0 0 0 0 0 0 0 0 0 108 421 559 585 526 587 726 774 870 1158 1297 1102 1029 1269 1480 1841 2203 2592 2590 2553 2554 2453 2260 1892 1226 1842 1633 1424 1481 1464 1350 1196 1186 1015 968 749 604 550 613 670 654 684 630 966 726 731 857 455 548 718 1197 1100 1159 1334 1071 763 649
0 0 0 0 0 0 0 0 0 0 0 0 0 0 0 0 0 0 0 0 0 0 0 0 0 0 0 0 346 444 649 620 640 694 840 1092 1015 1031 1240 1335 1285 1283 1492 1623 1854 2015 2269 2606 2710 2568 2423 2234 1838 1208 1657 1710 1372 1366 1200 1399 1318 1260 1137 1106 876 798 685 501 648 684 898 842 1013 879 794 923 681 571 798 938 1302 1343 1227 884 833 787
0 0 0 0 0 0 0 0 0 0 0 0 0 0 0 0 0 0 0 0 0 0 0 0 0 0 0 113 437 600 731 862 1035 1101 1167 1355 1275 1107 1255 1354 1376 1479 1474 1833 1942 2073 2370 2379 2340 2263 2214 2173 1790 1204 1579 1500 1288 1175 1431 1524 1450 1311 1278 1170 1053 896 728 602 753 900 969 872 978 915 768 793 758 854 712 769 1291 1247 1059 1055 876 843
0 0 0 0 0 0 0 0 0 0 0 0 0 0 0 0 0 0 0 0 0 0 0 0 0 0 0 39 244 552 744 975 952 1078 1234 1517 1592 1406 1157 1224 1378 1491 1702 1656 1594 1659 1628 1765 1996 2224 2278 2234 1850 1311 1554 1397 1080 835 1306 1767 1575 1456 1406 1270 926 781 729 728 973 1026 966 853 906 984 800 818 705 1066 739 772 1170 1266 901 903 799 789
0 0 0 0 0 0 0 0 0 0 0 0 0 0 0 0 0 0 0 0 0 0 0 0 0 0 224 190 195 274 584 722 859 1072 1358 1375 1426 1323 1209 1148 1166 1246 1282 1217 1278 1486 1595 1582 1656 1678 1856 1912 1574 1220 1517 1478 946 880 1040 1602 1729 1634 1526 1213 829 683 694 870 988 970 888 797 800 881 896 763 858 1120 772 858 1084 1086 887 880 832 765
0 0 0 0 0 0 0 0 0 0 0 0 0 0 0 0 0 0 0 0 0 0 0 1 0 33 10 298 751 659 611 646 945 1176 1132 1080 1193 1331 1170 1120 1019 1054 1156 1022 957 971 1057 1153 1238 1402 1620 1552 1206 1043 1226 1071 962 651 1008 1264 1746 1724 1444 1082 807 539 627 888 1019 941 790 656 722 872 911 688 939 1135 1007 888 1030 865 781 831 749 633
0 0 0 0 0 0 0 0 0 0 0 0 0 0 0 0 0 0 0 0 0 0 0 0 0 184 244 550 649 842 743 762 877 827 890 906 926 1070 1103 1005 935 916 1044 976 988 836 814 830 892 1110 1160 1201 1162 766 868 940 971 850 788 968 1353 1632 1506 1173 899 641 642 802 898 882 790 702 644 882 1071 940 1003 1198 1196 895 899 740 682 618 562 629
0 0 0 0 0 0 0 0 0 0 0 0 0 0 0 0 0 0 0 0 0 0 0 0 299 374 374 474 525 737 766 857 853 756 826 926 796 841 923 840 942 874 776 759 784 899 879 841 1075 1088 1152 1154 1104 870 850 856 986 833 920 913 1049 1503 1491 1324 1052 854 775 819 778 738 735 682 599 808 1029 1020 1060 1120 936 891 711 720 593 583 636 601
0 0 0 0 0 0 0 0 0 0 0 0 0 1 0 0 0 0 0 0 0 0 0 0 97 300 362 124 164 570 571 772 737 706 850 646 762 584 598 633 607 593 676 671 670 709 625 532 740 771 1008 1006 1010 1001 1050 1026 997 758 822 1232 1376 1538 1385 1312 1144 1035 996 846 765 799 735 706 735 704 991 1031 1026 971 880 767 950 757 675 581 668 577
0 0 0 0 0 6 4 0 0 0 0 0 0 0 0 1 0 0 0 0 0 0 0 1 118 112 81 65 463 541 593 586 827 615 704 552 514 502 418 442 522 582 739 572 517 432 460 546 338 413 885 910 745 694 855 944 857 903 739 928 997 1092 1025 1118 1064 1024 1137 971 812 761 788 753 717 629 925 996 950 848 756 568 822 751 723 675 626 533
0 0 0 0 0 4 2 0 0 0 0 0 0 0 0 0 0 0 0 0 0 0 0 6 19 15 83 331 531 512 548 598 554 470 365 472 490 489 566 586 574 601 662 676 647 578 432 423 538 644 705 651 620 580 754 865 668 563 784 984 1165 895 620 728 875 933 1057 1229 1133 934 792 783 679 480 513 715 817 732 541 750 603 475 477 504 428 366
1 0 0 0 3 1 2 0 0 0 4 5 0 0 0 0 4 0 54 0 0 0 0 0 25 25 267 446 501 488 428 478 473 426 374 332 407 425 402 456 501 538 598 470 521 388 526 384 700 479 562 633 630 631 721 795 1018 772 691 940 809 533 475 562 476 854 911 887 1023 1010 810 858 667 453 425 576 638 646 621 732 450 386 378 363 345 309
0 0 0 0 1 0 2 2 8 1 6 14 15 12 0 0 0 0 0 0 0 0 1 0 96 154 206 154 392 512 426 416 369 443 350 385 377 347 483 367 346 420 430 550 421 169 301 235 166 539 472 608 617 590 923 814 899 910 850 729 803 828 809 741 643 602 726 798 909 1045 980 816 478 410 410 627 567 437 839 441 417 339 400 380 357 326
17 0 0 0 3 3 1 3 1 0 5 163 180 137 106 58 0 0 9 7 0 52 5 0 208 230 246 188 357 410 514 531 389 374 416 355 302 257 300 375 448 430 324 335 121 286 288 281 248 246 263 178 328 438 544 798 752 689 751 648 661 878 932 870 866 738 688 714 836 1010 1094 831 530 421 391 434 424 595 737 434 398 380 418 382 360 290
367 10 0 0 0 0 0 0 2 1 10 184 127 177 190 284 199 46 25 145 12 84 0 55 32 302 137 270 295 354 482 548 459 476 364 457 473 448 475 486 138 99 432 333 10 2 346 351 372 450 320 168 128 407 378 502 689 604 596 603 626 731 814 756 705 724 755 815 825 745 719 741 575 461 590 564 618 708 549 503 466 445 415 363 250 46
27 9 0 0 0 0 9 0 0 1 88 146 89 66 88 101 373 384 4 8 59 14 19 0 1 165 211 258 420 399 422 453 389 370 300 259 364 459 366 126 237 265 275 143 137 28 29 12 96 350 317 371 454 407 426 606 653 651 534 653 722 637 550 574 569 590 576 684 818 738 641 804 698 480 672 707 657 555 626 591 602 520 456 99 7 137
32 18 22 0 0 10 23 3 20 0 12 66 23 8 20 144 173 245 26 12 3 34 0 195 131 200 178 188 141 253 264 275 311 0 1 5 263 315 272 280 278 222 211 205 197 104 121 29 68 109 150 175 54 144 370 591 661 581 540 570 615 601 492 540 606 478 594 755 784 714 621 768 595 428 648 546 492 575 671 647 595 424 186 12 149 179
121 89 202 87 0 8 41 36 23 21 10 12 21 91 97 71 169 34 1 84 30 27 156 66 119 163 201 170 261 235 376 496 345 248 0 0 0 12 197 287 281 244 222 244 230 216 186 168 117 117 105 28 1 13 27 308 496 554 484 511 531 525 522 540 568 540 583 548 660 648 679 639 408 357 372 485 434 550 674 614 457 251 111 109 126 157
0 1 41 180 21 4 35 59 19 20 4 9 3 11 22 64 203 210 230 49 117 6 169 182 134 84 143 191 160 196 197 290 284 185 60 101 67 54 17 33 181 152 160 238 237 191 122 123 141 130 107 122 127 0 42 17 25 194 267 288 304 310 313 411 413 460 633 602 614 615 726 645 391 271 268 305 389 459 604 535 394 284 213 162 90 137
8 21 55 45 0 84 40 42 23 3 5 0 6 5 15 52 143 193 184 32 4 1 3 208 283 1 2 2 72 122 152 120 38 54 68 16 13 40 102 84 35 1 1 1 2 1 2 23 6 113 128 117 138 236 198 166 3 5 31 21 104 118 151 195 228 330 458 402 519 621 586 612 447 354 456 246 347 486 485 464 416 264 186 189 126 98
3 28 17 1 8 349 41 58 2 0 8 0 1 2 46 34 40 77 64 71 41 55 54 127 316 7 5 92 12 11 4 11 1 0 0 3 15 44 113 71 10 2 2 36 49 8 17 54 91 162 146 146 155 200 140 231 100 1 1 11 5 21 126 148 197 131 347 400 454 400 510 502 431 402 273 116 328 500 419 406 320 268 233 206 106 1
35 2 66 57 14 15 9 0 51 7 4 0 6 25 22 54 36 12 41 10 18 61 179 149 273 100 19 4 5 9 36 30 0 6 2 3 2 2 19 4 48 68 82 69 88 140 86 54 2 1 62 170 168 2 1 1 1 0 22 14 14 58 160 144 142 149 260 277 110 373 418 382 398 340 226 262 364 328 288 390 286 236 220 97 6 0
67 7 56 197 4 11 10 65 48 28 18 4 7 4 5 10 22 1 0 72 75 39 41 113 154 178 50 6 4 2 2 3 3 2 3 88 38 51 74 126 89 84 136 131 103 91 16 9 71 1 2 113 89 23 2 22 40 31 32 17 43 115 159 171 101 148 26 53 219 288 432 414 314 316 262 363 354 341 386 344 261 240 181 54 14 0
6 0 11 96 0 18 57 9 38 13 29 10 4 0 9 12 0 0 0 0 34 60 74 56 86 30 35 9 2 3 2 2 4 1 4 4 49 87 85 16 4 2 2 2 4 48 21 6 2 1 1 164 3 3 2 1 1 3 14 11 0 25 136 181 184 125 53 48 216 320 363 421 342 304 168 236 337 276 259 256 246 185 94 58 18 0
1 0 0 0 3 59 21 55 42 44 16 0 5 2 1 0 0 0 0 0 0 0 15 16 35 12 1 1 0 1 1 2 3 7 11 36 33 97 26 34 60 8 1 29 24 15 2 2 1 1 1 1 4 94 1 0 0 0 0 0 1 4 43 118 159 153 159 151 138 381 378 310 266 155 288 232 174 169 208 227 162 78 58 45 12 0
0 0 0 0 0 82 68 55 5 0 0 10 0 5 0 2 0 0 0 0 0 0 0 1 3 2 2 1 1 0 3 6 3 2 8 10 8 9 7 4 2 1 0 2 1 3 1 1 0 0 0 33 16 63 48 10 0 0 2 4 0 0 0 6 42 79 134 112 78 220 372 287 158 144 185 132 156 172 88 179 88 58 46 1 0 0
0 0 0 0 0 0 11 8 3 0 0 0 2 1 0 3 0 0 0 2 3 3 1 1 0 1 0 2 2 2 3 7 7 6 13 5 9 10 16 6 8 12 3 0 0 1 6 2 0 2 33 57 49 24 25 8 0 3 1 0 0 0 0 0 3 5 8 27 40 57 242 304 233 223 149 78 52 56 25 18 0 11 1 1 0 0
49 20 0 3 0 0 32 0 0 0 0 0 1 0 0 0 1 2 1 1 1 3 2 2 0 0 1 0 1 5 8 8 8 5 12 8 10 2 2 9 14 4 0 10 6 1 58 1 1 0 0 0 0 0 0 1 1 2 1 0 0 0 0 0 0 0 2 19 28 44 96 212 147 150 45 86 66 34 27 21 28 28 34 0 6 0
6 102 25 0 0 0 0 0 2 2 2 1 1 1 1 1 1 1 0 0 2 2 6 9 8 1 2 3 4 5 7 2 8 4 11 11 14 10 11 12 18 16 6 8 0 0 0 1 0 0 0 0 0 0 0 0 0 2 3 2 0 0 0 0 0 0 0 2 18 38 47 121 108 55 17 38 27 18 25 27 35 44 30 19 22 15
13 7 0 4 0 0 0 2 3 4 0 2 2 0 0 0 1 0 0 0 3 1 1 0 3 8 10 6 2 1 2 5 6 3 14 6 11 13 14 14 13 18 24 22 12 1 0 5 14 5 0 0 0 1 0 1 0 0 0 0 0 0 0 0 0 0 0 0 2 4 1 33 46 38 1 6 19 20 28 23 23 26 27 13 3 10
13 3 0 1 0 6 0 6 26 0 0 0 0 0 3 2 0 1 2 0 0 2 0 1 1 1 2 5 9 11 9 11 14 8 8 18 8 6 8 14 8 3 2 13 10 10 2 0 3 10 8 5 0 0 0 0 0 0 0 0 0 0 0 0 0 0 1 1 4 4 1 0 4 8 2 4 16 26 25 19 11 20 1 2 6 5
19 14 5 8 32 9 11 1 6 0 1 0 0 1 0 3 2 0 1 0 0 1 1 0 0 1 0 0 0 2 7 5 8 10 8 4 7 9 10 12 13 15 17 16 18 15 11 14 17 21 9 0 0 0 0 1 0 0 2 2 1 1 0 0 0 0 0 2 8 2 8 7 2 0 1 1 0 0 2 1 1 2 5 3 2 2
11 13 22 13 22 20 9 12 0 1 0 1 0 1 0 1 9 4 2 3 1 0 4 6 6 4 3 2 1 1 5 9 4 10 15 15 10 5 1 2 4 4 8 10 9 20 24 18 22 24 13 4 2 2 2 1 2 5 4 6 6 3 0 0 0 0 0 0 0 1 0 0 4 5 4 2 1 4 1 0 0 1 1 1 4 6
0 3 6 5 28 8 2 0 0 0 1 0 4 0 0 2 6 1 0 0 0 0 2 1 1 2 2 2 6 5 6 5 3 4 3 2 3 4 6 7 6 4 3 4 4 4 7 14 6 6 14 10 4 0 4 9 7 6 7 9 8 6 0 0 0 0 0 0 0 0 0 0 0 0 0 0 0 0 2 1 1 2 5 5 9 8
0 0 0 0 0 0 2 0 0 0 0 0 3 0 3 0 0 0 0 0 2 0 0 0 0 0 1 1 4 7 8 6 7 13 7 6 4 5 6 4 8 4 4 4 8 16 15 12 11 10 11 12 14 12 8 4 4 4 7 10 9 7 0 0 0 0 0 0 0 0 0 0 0 0 0 0 0 0 0 0 0 0 0 0 0 0
0 0 0 0 0 0 0 1 2 1 16 5 1 4 0 0 0 0 0 1 4 3 3 0 0 0 0 0 1 1 1 1 2 0 6 8 0 1 3 6 8 7 4 10 14 12 8 6 2 3 5 6 9 7 8 8 9 4 3 8 11 9 2 0 0 0 0 0 0 0 0 0 0 0 0 0 0 0 0 0 0 0 0 0 2 5
2 2 0 0 0 0 1 5 17 23 15 17 9 0 1 1 1 1 4 4 2 1 1 0 2 2 1 2 2 1 2 2 5 5 4 2 4 11 7 3 2 3 4 1 0 3 14 16 9 14 14 6 2 2 3 3 5 10 8 4 2 3 1 0 0 0 0 0 0 0 0 0 0 0 0 0 0 0 0 0 0 0 0 0 0 3
0 4 0 0 0 0 0 2 0 2 3 1 1 1 2 3 5 4 3 4 4 4 3 2 2 1 2 2 3 2 1 2 1 2 4 6 2 1 0 1 0 0 1 3 0 0 4 4 4 6 5 2 0 0 0 0 0 0 0 0 0 0 0 0 0 0 0 0 0 0 0 0 0 0 0 0 0 0 0 0 0 0 0 0 0 8
0 0 0 0 0 0 0 5 0 0 0 0 0 0 1 2 3 0 2 5 6 6 3 2 1 4 5 3 2 1 0 2 3 1 2 1 2 1 0 1 0 0 1 5 1 0 0 1 1 2 2 5 4 0 0 0 0 1 0 0 0 0 0 0 0 0 0 0 0 0 0 0 0 0 0 0 0 0 0 0 0 0 0 3 2 8
0 0 0 0 0 3 6 5 3 4 2 0 0 0 0 0 0 0 0 0 0 0 0 0 0 0 0 0 0 0 0 0 1 1 3 2 3 4 1 0 0 0 0 0 0 0 0 0 0 0 0 0 0 0 0 0 0 0 0 0 0 0 0 0 0 0 0 0 0 0 0 0 0 0 0 0 0 0 0 0 0 0 0 0 0 1
0 0 0 0 0 0 3 0 0 0 8 4 2 0 0 0 0 0 0 0 0 0 0 0 0 0 0 0 0 0 0 0 0 0 0 0 2 4 5 5 5 2 0 0 0 2 1 1 0 0 0 0 0 0 0 0 0 0 0 0 0 0 0 0 0 0 0 0 0 0 0 0 0 0 0 0 0 0 0 0 0 0 0 0 0 0
0 0 0 0 0 0 1 2 0 0 1 6 1 1 0 0 0 0 0 0 0 0 0 0 0 0 0 0 0 0 0 0 0 0 0 0 0 2 2 2 6 5 4 1 0 2 0 0 0 0 0 0 0 0 0 0 0 0 0 0 0 0 0 0 0 0 0 0 0 0 0 0 0 0 0 0 0 0 0 0 0 0 0 0 0 0
Wind_Speed
nan nan nan nan nan nan nan nan nan nan nan nan nan nan nan nan nan nan nan nan nan nan nan nan nan nan nan nan nan nan nan nan nan nan 33 35 36 32 29 27 25 25 25 22 24 27 30 34 35 30 28 31 35 35 34 34 34 33 30 31 28 24 24 24 27 28 23 20 22 26 28 28 22 23 23 21 19 15 15 15 14 14 13 12 12 13
nan nan nan nan nan nan nan nan nan nan nan nan nan nan nan nan nan nan nan nan nan nan nan nan nan nan nan nan nan nan nan nan nan nan nan 37 40 36 35 30 27 26 26 26 25 26 29 34 38 33 30 32 37 36 35 34 34 32 31 30 28 27 24 22 24 22 19 19 22 25 28 28 24 21 21 20 17 15 14 14 15 15 13 13 12 13
nan nan nan nan nan nan nan nan nan nan nan nan nan nan nan nan nan nan nan nan nan nan nan nan nan nan nan nan nan nan nan nan nan nan nan 36 37 38 38 36 32 30 29 29 28 27 30 36 39 37 34 32 35 38 36 35 36 34 33 31 29 28 23 23 22 17 19 23 25 25 23 23 20 16 19 20 19 18 15 16 17 16 13 13 14 14
nan nan nan nan nan nan nan nan nan nan nan nan nan nan nan nan nan nan nan nan nan nan nan nan nan nan nan nan nan nan nan nan nan nan nan 32 36 39 42 40 37 33 30 31 31 30 31 35 38 37 34 32 33 35 34 33 31 28 28 29 29 26 25 25 20 18 22 23 25 26 24 20 18 20 22 21 21 19 16 17 18 15 13 13 13 15
nan nan nan nan nan nan nan nan nan nan nan nan nan nan nan nan nan nan nan nan nan nan nan nan nan nan nan nan nan nan nan nan nan nan nan nan 26 33 40 40 40 37 32 31 31 31 32 35 34 33 30 29 29 31 33 33 30 26 26 25 25 25 24 25 20 18 19 20 23 24 26 24 21 21 23 21 21 18 16 19 17 14 12 12 14 15
nan nan nan nan nan nan nan nan nan nan nan nan nan nan nan nan nan nan nan nan nan nan nan nan nan nan nan nan nan nan nan nan nan nan nan nan nan nan 35 39 37 37 35 34 34 34 33 33 30 28 27 25 24 29 32 31 29 29 28 27 25 23 25 23 22 21 19 15 20 19 24 22 18 20 24 19 19 18 17 16 16 14 12 13 13 11
nan nan nan nan nan nan nan nan nan nan nan nan nan nan nan nan nan nan nan nan nan nan nan nan nan nan nan nan nan nan nan nan nan nan nan nan 22 30 33 33 34 36 34 32 34 34 32 31 30 26 26 23 25 28 30 28 27 28 30 31 26 22 24 24 23 23 23 15 16 17 24 24 19 19 15 17 18 19 17 17 16 12 14 14 13 12
nan nan nan nan nan nan nan nan nan nan nan nan nan nan nan nan nan nan nan nan nan nan nan nan nan nan nan nan nan nan nan 19 27 34 nan 30 31 33 34 37 33 33 35 35 34 34 28 23 23 23 23 25 26 26 27 28 27 27 28 30 26 22 25 25 25 24 22 19 15 17 23 21 15 13 18 19 20 19 17 16 14 16 16 15 14 11
nan nan nan nan nan nan nan nan nan nan nan nan nan nan nan nan nan nan nan nan nan nan nan nan nan nan nan nan nan nan nan 22 27 28 28 27 30 32 32 34 31 30 32 35 33 35 33 27 18 14 15 21 22 22 23 25 27 27 25 25 25 27 29 27 26 24 21 17 15 16 21 21 14 17 20 21 21 20 17 17 15 16 17 16 13 8
nan nan nan nan nan nan nan nan nan nan nan nan nan nan nan nan nan nan nan nan nan nan nan nan nan nan nan nan nan 18 25 25 23 29 28 27 28 31 32 33 37 39 37 35 37 37 33 28 25 22 21 19 18 20 21 25 28 30 29 26 26 29 28 25 23 23 20 18 17 18 18 21 18 18 19 20 21 20 18 17 15 16 18 14 11 9
nan nan nan nan nan nan nan nan nan nan nan nan nan nan nan nan nan nan nan nan nan nan nan nan nan nan nan nan 25 23 24 23 20 25 27 28 32 35 34 37 39 37 35 35 35 34 33 31 28 23 22 22 23 22 23 25 30 36 35 30 24 25 26 23 22 22 19 18 18 19 20 22 20 18 17 18 19 18 17 15 12 13 14 12 9 9
nan nan nan nan nan nan nan nan nan nan nan nan nan nan nan nan nan nan nan nan nan nan nan nan nan nan nan 22 20 22 26 27 28 28 31 35 37 38 38 40 44 42 38 36 35 36 39 37 32 27 26 28 29 27 32 38 38 38 38 29 20 19 23 22 21 19 17 19 17 15 20 22 20 19 17 16 16 15 14 13 11 11 13 14 12 11
nan nan nan nan nan nan nan nan nan nan nan nan nan nan nan nan nan nan nan nan nan nan nan nan nan nan nan nan 22 27 26 27 30 31 33 36 39 41 43 43 45 46 43 43 43 43 42 37 32 28 27 30 30 34 38 41 44 41 37 26 19 16 18 17 18 16 15 18 16 14 15 19 19 20 18 17 17 17 16 14 13 13 13 13 12 12
nan nan nan nan nan nan nan nan nan nan nan nan nan nan nan nan nan nan nan nan nan nan nan nan nan nan 16 24 25 29 29 27 28 32 36 36 38 43 47 47 47 46 44 45 45 44 41 36 31 29 28 30 32 35 38 41 40 40 34 27 15 12 16 18 17 13 11 13 15 13 13 18 19 19 20 18 18 18 17 15 13 13 14 13 11 12
nan nan nan nan nan nan nan nan nan nan nan nan nan nan nan nan nan nan nan nan nan nan nan nan nan nan nan 23 23 30 31 31 31 35 34 34 35 37 40 44 45 43 41 43 45 42 38 35 32 30 30 30 33 37 40 39 31 32 33 25 19 13 15 18 18 11 7 9 12 13 11 15 20 20 20 20 17 17 18 17 16 16 16 14 12 13
nan nan nan nan nan nan nan nan nan nan nan nan nan nan nan nan nan nan nan nan nan nan nan nan nan 20 22 20 24 27 30 33 35 35 34 33 34 36 38 38 37 37 37 39 40 38 36 36 34 30 28 30 35 39 36 31 30 27 28 24 19 18 17 18 19 13 7 8 10 12 11 9 15 18 19 20 19 18 19 19 19 19 17 15 16 17
nan nan nan nan nan nan nan nan nan nan nan nan nan nan nan nan nan nan nan nan nan nan nan nan 21 20 21 23 28 31 34 35 35 32 31 30 32 35 35 34 34 32 34 38 38 35 35 36 33 30 26 25 25 27 28 27 26 28 26 22 21 20 21 21 19 15 11 11 10 11 13 9 7 14 18 17 17 18 19 19 20 21 18 16 19 20
nan nan nan nan nan nan nan nan nan nan nan nan nan nan nan nan nan nan nan nan nan nan nan nan nan 20 21 23 24 31 32 31 29 27 26 28 30 33 31 31 31 32 33 34 37 36 35 33 31 28 25 22 19 18 23 25 26 26 24 24 24 29 29 27 23 16 12 11 10 12 15 14 7 9 14 16 16 17 19 19 20 20 17 16 19 21
nan nan nan nan nan nan nan nan nan nan nan nan nan nan nan nan nan nan nan nan nan nan nan nan 25 25 nan nan 24 29 30 28 28 27 29 30 31 31 32 32 31 32 33 34 33 31 30 31 29 26 22 18 15 17 21 20 21 26 29 34 35 35 29 22 22 18 12 12 13 14 16 17 14 10 10 13 16 17 18 18 17 16 14 17 19 20
nan nan nan nan nan nan nan nan nan nan nan nan nan nan nan nan nan nan nan nan nan nan nan nan nan nan nan 21 24 26 29 29 29 29 30 31 33 31 29 27 28 30 30 31 32 28 25 29 29 23 23 21 19 18 16 17 16 20 25 30 31 29 25 23 26 20 9 9 13 16 17 16 17 15 13 15 16 16 15 15 17 15 15 17 18 19
nan nan nan nan nan nan nan nan nan nan nan nan nan nan nan nan nan nan nan nan nan nan nan nan nan nan 22 24 26 26 25 23 25 28 31 31 30 29 26 24 23 26 28 31 31 27 23 24 23 23 21 18 16 14 12 14 15 17 19 21 20 20 22 23 19 7 2 5 8 13 16 16 17 16 15 16 16 16 15 17 22 20 18 18 19 20
nan nan nan nan nan nan nan nan nan nan nan nan nan nan nan nan nan nan nan nan nan nan nan nan nan 24 24 23 27 27 25 23 23 27 29 30 28 23 20 21 22 25 27 30 30 29 26 22 20 19 18 17 14 14 15 13 13 15 15 12 13 14 17 20 17 12 10 8 7 9 13 15 16 16 16 16 17 17 17 18 24 26 23 22 21 22
nan nan nan nan nan nan nan nan nan nan nan 39 32 29 30 nan nan nan nan nan nan nan nan nan 30 26 26 25 25 24 23 25 26 25 25 25 25 20 16 17 22 28 30 31 29 28 26 25 22 19 20 18 17 15 16 14 15 16 14 12 10 11 13 14 15 15 12 12 13 11 11 14 15 15 14 15 17 17 17 21 25 26 26 24 22 22
33 nan nan nan nan nan nan nan nan nan nan 37 37 36 35 31 28 nan nan 24 nan nan nan nan nan 26 25 25 26 24 23 26 28 23 21 20 19 18 18 19 25 nan 29 28 nan nan 26 26 24 25 24 22 20 18 17 15 14 13 14 14 13 11 9 8 16 19 12 15 20 14 13 13 14 13 13 16 18 18 20 23 25 25 25 25 23 nan
nan nan nan nan nan nan nan nan nan nan nan 34 nan nan nan 30 30 28 nan nan nan nan nan nan nan 25 26 24 25 25 25 27 26 25 25 23 20 20 22 22 26 28 28 29 28 nan nan nan nan 26 25 23 23 22 20 20 20 19 18 16 15 16 14 13 15 20 18 18 23 22 17 16 15 13 15 18 17 19 21 24 26 24 24 nan nan 22
nan nan nan nan nan nan nan nan nan nan nan nan nan nan nan 36 31 31 nan nan nan nan nan 34 32 29 31 30 32 28 25 24 21 nan nan nan 24 23 22 24 26 27 28 29 29 29 29 nan nan 27 26 25 nan 24 23 24 24 23 22 23 20 19 19 20 20 21 26 26 26 25 23 16 14 15 21 19 14 17 23 24 25 25 25 nan 24 24
31 nan 29 nan nan nan nan nan nan nan nan nan nan nan nan nan 32 nan nan nan nan nan 38 nan 34 35 33 34 34 32 29 26 23 22 nan nan nan nan 24 25 25 26 26 27 28 27 28 30 30 29 28 nan nan nan nan 24 24 25 25 25 24 22 21 21 27 28 28 26 27 27 24 18 15 21 23 17 14 16 24 24 24 24 24 24 26 25
nan nan nan 29 nan nan nan nan nan nan nan nan nan nan nan nan 31 36 33 nan 28 nan 36 30 33 nan 35 36 32 31 31 30 26 25 nan 21 nan nan nan nan 28 26 26 25 27 28 29 29 29 30 30 29 28 nan nan nan nan 26 27 26 25 24 22 22 29 28 27 28 29 25 24 20 21 25 26 21 18 19 26 26 24 24 23 24 nan 27
nan nan nan nan nan nan nan nan nan nan nan nan nan nan nan nan 39 37 36 nan nan nan nan 29 33 nan nan nan nan 27 28 29 nan nan nan nan nan nan 25 nan nan nan nan nan nan nan nan nan nan 30 30 30 30 30 29 29 nan nan nan nan 27 24 23 21 26 30 30 28 27 25 27 27 24 26 26 27 24 25 27 25 24 23 22 23 25 nan
nan nan nan nan nan 24 nan nan nan nan nan nan nan nan nan nan nan nan nan nan nan nan nan 43 43 nan nan nan nan nan nan nan nan nan nan nan nan nan 25 nan nan nan nan nan nan nan nan nan nan 29 30 30 31 31 31 30 30 nan nan nan nan nan 25 25 27 31 31 30 26 27 29 28 28 28 26 28 27 25 23 26 25 24 23 24 26 nan
nan nan nan nan nan nan nan nan nan nan nan nan nan nan nan nan nan nan nan nan nan nan 40 42 41 nan nan nan nan nan nan nan nan nan nan nan nan nan nan nan nan nan nan nan nan 26 nan nan nan nan nan 30 31 nan nan nan nan nan nan nan nan nan 29 31 33 29 29 32 29 32 32 30 31 30 31 32 30 24 23 30 28 26 27 nan nan nan
nan nan nan 24 nan nan nan nan nan nan nan nan nan nan nan nan nan nan nan nan nan nan nan 38 36 29 nan nan nan nan nan nan nan nan nan nan nan nan nan 30 nan nan 31 31 30 nan nan nan nan nan nan 29 nan nan nan nan nan nan nan nan nan 31 32 36 35 33 nan nan 33 36 33 33 32 30 30 30 26 25 28 31 30 30 30 nan nan nan
nan nan nan nan nan nan nan nan nan nan nan nan nan nan nan nan nan nan nan nan nan nan nan nan nan nan nan nan nan nan nan nan nan nan nan nan nan nan nan nan nan nan nan nan nan nan nan nan nan nan nan 27 nan nan nan nan nan nan nan nan nan nan 36 36 35 33 nan nan 29 32 34 33 31 33 33 33 30 27 32 34 32 31 nan nan nan nan
nan nan nan nan nan nan nan nan nan nan nan nan nan nan nan nan nan nan nan nan nan nan nan nan nan nan nan nan nan nan nan nan nan nan nan nan nan nan nan nan nan nan nan nan nan nan nan nan nan nan nan nan nan nan nan nan nan nan nan nan nan nan nan 36 35 33 31 31 31 28 32 32 32 33 33 34 31 29 34 34 32 nan nan nan nan nan
nan nan nan nan nan nan nan nan nan nan nan nan nan nan nan nan nan nan nan nan nan nan nan nan nan nan nan nan nan nan nan nan nan nan nan nan nan nan nan nan nan nan nan nan nan nan nan nan nan nan nan nan nan nan nan nan nan nan nan nan nan nan nan nan nan nan 31 31 nan 30 31 31 32 32 31 32 32 34 nan 33 nan nan nan nan nan nan
nan nan nan nan nan nan nan nan nan nan nan nan nan nan nan nan nan nan nan nan nan nan nan nan nan nan nan nan nan nan nan nan nan nan nan nan nan nan nan nan nan nan nan nan nan nan nan nan nan nan nan nan nan nan nan nan nan nan nan nan nan nan nan nan nan nan nan nan nan nan 31 29 31 33 32 nan nan nan nan nan nan nan nan nan nan nan
nan nan nan nan nan nan nan nan nan nan nan nan nan nan nan nan nan nan nan nan nan nan nan nan nan nan nan nan nan nan nan nan nan nan nan nan nan nan nan nan nan nan nan nan nan nan nan nan nan nan nan nan nan nan nan nan nan nan nan nan nan nan nan nan nan nan nan nan nan nan nan 31 31 33 nan nan nan nan nan nan nan nan nan nan nan nan
nan 26 nan nan nan nan nan nan nan nan nan nan nan nan nan nan nan nan nan nan nan nan nan nan nan nan nan nan nan nan nan nan nan nan nan nan nan nan nan nan nan nan nan nan nan nan nan nan nan nan nan nan nan nan nan nan nan nan nan nan nan nan nan nan nan nan nan nan nan nan nan 35 35 nan nan nan nan nan nan nan nan nan nan nan nan nan
nan nan nan nan nan nan nan nan nan nan nan nan nan nan nan nan nan nan nan nan nan nan nan nan nan nan nan nan nan nan nan nan nan nan nan nan nan nan nan nan nan nan nan nan nan nan nan nan nan nan nan nan nan nan nan nan nan nan nan nan nan nan nan nan nan nan nan nan nan nan nan nan nan nan nan nan nan nan nan nan nan nan nan nan nan nan
nan nan nan nan nan nan nan nan nan nan nan nan nan nan nan nan nan nan nan nan nan nan nan nan nan nan nan nan nan nan nan nan nan nan nan nan nan nan nan nan nan nan nan nan nan nan nan nan nan nan nan nan nan nan nan nan nan nan nan nan nan nan nan nan nan nan nan nan nan nan nan nan nan nan nan nan nan nan nan nan nan nan nan nan nan nan
nan nan nan nan nan nan nan nan nan nan nan nan nan nan nan nan nan nan nan nan nan nan nan nan nan nan nan nan nan nan nan nan nan nan nan nan nan nan nan nan nan nan nan nan nan nan nan nan nan nan nan nan nan nan nan nan nan nan nan nan nan nan nan nan nan nan nan nan nan nan nan nan nan nan nan nan nan nan nan nan nan nan nan nan nan nan
nan nan nan nan nan nan nan nan nan nan nan nan nan nan nan nan nan nan nan nan nan nan nan nan nan nan nan nan nan nan nan nan nan nan nan nan nan nan nan nan nan nan nan nan nan nan nan nan nan nan nan nan nan nan nan nan nan nan nan nan nan nan nan nan nan nan nan nan nan nan nan nan nan nan nan nan nan nan nan nan nan nan nan nan nan nan
nan nan nan nan nan nan nan nan nan nan nan nan nan nan nan nan nan nan nan nan nan nan nan nan nan nan nan nan nan nan nan nan nan nan nan nan nan nan nan nan nan nan nan nan nan nan nan nan nan nan nan nan nan nan nan nan nan nan nan nan nan nan nan nan nan nan nan nan nan nan nan nan nan nan nan nan nan nan nan nan nan nan nan nan nan nan
nan nan nan nan nan nan nan nan nan nan nan nan nan nan nan nan nan nan nan nan nan nan nan nan nan nan nan nan nan nan nan nan nan nan nan nan nan nan nan nan nan nan nan nan nan nan nan nan nan nan nan nan nan nan nan nan nan nan nan nan nan nan nan nan nan nan nan nan nan nan nan nan nan nan nan nan nan nan nan nan nan nan nan nan nan nan
nan nan nan nan nan nan nan nan nan nan nan nan nan nan nan nan nan nan nan nan nan nan nan nan nan nan nan nan nan nan nan nan nan nan nan nan nan nan nan nan nan nan nan nan nan nan nan nan nan nan nan nan nan nan nan nan nan nan nan nan nan nan nan nan nan nan nan nan nan nan nan nan nan nan nan nan nan nan nan nan nan nan nan nan nan nan
nan nan nan nan nan nan nan nan nan nan nan nan nan nan nan nan nan nan nan nan nan nan nan nan nan nan nan nan nan nan nan nan nan nan nan nan nan nan nan nan nan nan nan nan nan nan nan nan nan nan nan nan nan nan nan nan nan nan nan nan nan nan nan nan nan nan nan nan nan nan nan nan nan nan nan nan nan nan nan nan nan nan nan nan nan nan
nan nan nan nan nan nan nan nan nan nan nan nan nan nan nan nan nan nan nan nan nan nan nan nan nan nan nan nan nan nan nan nan nan nan nan nan nan nan nan nan nan nan nan nan nan nan nan nan nan nan nan nan nan nan nan nan nan nan nan nan nan nan nan nan nan nan nan nan nan nan nan nan nan nan nan nan nan nan nan nan nan nan nan nan nan nan
nan nan nan nan nan nan nan nan nan nan nan nan nan nan nan nan nan nan nan nan nan nan nan nan nan nan nan nan nan nan nan nan nan nan nan nan nan nan nan nan nan nan nan nan nan nan nan nan nan nan nan nan nan nan nan nan nan nan nan nan nan nan nan nan nan nan nan nan nan nan nan nan nan nan nan nan nan nan nan nan nan nan nan nan nan nan
nan nan nan nan nan nan nan nan nan nan nan nan nan nan nan nan nan nan nan nan nan nan nan nan nan nan nan nan nan nan nan nan nan nan nan nan nan nan nan nan nan nan nan nan nan nan nan nan nan nan nan nan nan nan nan nan nan nan nan nan nan nan nan nan nan nan nan nan nan nan nan nan nan nan nan nan nan nan nan nan nan nan nan nan nan nan
nan nan nan nan nan nan nan nan nan nan nan nan nan nan nan nan nan nan nan nan nan nan nan nan nan nan nan nan nan nan nan nan nan nan nan nan nan nan nan nan nan nan nan nan nan nan nan nan nan nan nan nan nan nan nan nan nan nan nan nan nan nan nan nan nan nan nan nan nan nan nan nan nan nan nan nan nan nan nan nan nan nan nan nan nan nan
nan nan nan nan nan nan nan nan nan nan nan nan nan nan nan nan nan nan nan nan nan nan nan nan nan nan nan nan nan nan nan nan nan nan nan nan nan nan nan nan nan nan nan nan nan nan nan nan nan nan nan nan nan nan nan nan nan nan nan nan nan nan nan nan nan nan nan nan nan nan nan nan nan nan nan nan nan nan nan nan nan nan nan nan nan nan
Wind_Direction
nan nan nan nan nan nan nan nan nan nan nan nan nan nan nan nan nan nan nan nan nan nan nan nan nan nan nan nan nan nan nan nan nan nan 294 301 301 297 296 303 309 311 310 299 294 292 287 283 282 284 281 279 281 284 285 288 292 300 304 298 303 301 289 285 282 290 300 282 276 277 273 273 265 252 245 233 234 239 244 252 259 256 246 241 241 246
nan nan nan nan nan nan nan nan nan nan nan nan nan nan nan nan nan nan nan nan nan nan nan nan nan nan nan nan nan nan nan nan nan nan nan 304 305 303 304 307 312 307 289 292 290 286 281 280 281 280 278 280 283 287 290 293 297 304 304 303 302 290 275 269 283 299 294 263 250 257 270 267 251 245 247 238 238 241 241 255 255 256 247 248 247 248
nan nan nan nan nan nan nan nan nan nan nan nan nan nan nan nan nan nan nan nan nan nan nan nan nan nan nan nan nan nan nan nan nan nan nan 303 300 301 303 305 301 296 297 294 291 284 279 279 278 277 278 281 288 295 300 302 305 309 307 305 299 286 276 280 288 278 266 255 242 229 238 258 248 236 238 236 236 236 242 251 251 254 249 243 250 246
nan nan nan nan nan nan nan nan nan nan nan nan nan nan nan nan nan nan nan nan nan nan nan nan nan nan nan nan nan nan nan nan nan nan nan 302 304 305 304 304 303 297 297 299 296 287 278 278 279 282 284 286 289 292 293 297 300 294 293 297 289 287 281 276 276 268 269 262 254 249 235 227 234 239 233 233 239 239 244 252 251 251 251 245 255 247
nan nan nan nan nan nan nan nan nan nan nan nan nan nan nan nan nan nan nan nan nan nan nan nan nan nan nan nan nan nan nan nan nan nan nan nan 307 306 306 304 303 302 300 295 289 284 282 282 286 286 285 281 286 290 290 291 293 291 291 291 289 287 282 278 275 273 272 262 254 255 243 229 230 227 239 241 243 247 248 254 255 258 258 254 252 255
nan nan nan nan nan nan nan nan nan nan nan nan nan nan nan nan nan nan nan nan nan nan nan nan nan nan nan nan nan nan nan nan nan nan nan nan nan nan 301 299 299 299 298 299 297 291 288 288 281 281 283 289 293 287 282 288 296 297 293 288 282 275 273 271 271 276 279 271 265 260 256 244 235 235 234 237 252 254 256 263 255 255 262 259 254 249
nan nan nan nan nan nan nan nan nan nan nan nan nan nan nan nan nan nan nan nan nan nan nan nan nan nan nan nan nan nan nan nan nan nan nan nan 246 250 254 263 281 294 290 282 278 277 282 283 284 284 290 295 286 278 284 292 297 292 289 290 285 271 266 269 266 270 280 274 260 241 245 236 226 243 243 244 240 250 251 251 262 264 261 257 253 243
nan nan nan nan nan nan nan nan nan nan nan nan nan nan nan nan nan nan nan nan nan nan nan nan nan nan nan nan nan nan nan 269 262 250 nan 245 245 243 253 263 279 284 288 284 276 269 266 276 291 305 301 289 285 289 291 295 292 286 285 290 286 267 260 259 260 267 273 284 293 270 254 244 238 244 249 241 248 251 252 255 259 262 260 250 242 239
nan nan nan nan nan nan nan nan nan nan nan nan nan nan nan nan nan nan nan nan nan nan nan nan nan nan nan nan nan nan nan 241 240 247 248 244 243 244 248 259 267 285 278 285 291 295 300 306 303 286 278 264 275 281 286 289 283 277 274 279 278 262 256 258 262 264 270 274 285 274 260 265 267 262 253 245 250 257 251 249 253 251 250 244 243 237
nan nan nan nan nan nan nan nan nan nan nan nan nan nan nan nan nan nan nan nan nan nan nan nan nan nan nan nan nan 242 247 244 231 225 239 251 248 246 253 257 258 265 273 280 289 297 304 304 303 314 299 289 270 261 260 273 272 267 262 262 267 261 261 266 268 268 271 274 279 276 266 274 273 269 260 254 256 256 253 252 253 246 241 238 228 232
nan nan nan nan nan nan nan nan nan nan nan nan nan nan nan nan nan nan nan nan nan nan nan nan nan nan nan nan 246 241 238 240 232 227 227 238 244 248 250 252 257 259 265 277 287 292 291 288 288 277 273 269 256 249 241 254 256 255 251 250 257 262 266 273 270 268 271 266 273 285 282 277 275 277 276 266 259 256 254 251 248 244 238 241 237 246
nan nan nan nan nan nan nan nan nan nan nan nan nan nan nan nan nan nan nan nan nan nan nan nan nan nan nan 248 238 242 243 239 243 235 230 234 238 242 246 246 250 254 259 263 264 264 265 268 271 276 276 271 261 249 241 240 236 237 242 248 249 252 263 265 263 265 257 252 265 286 294 286 282 280 277 276 272 268 264 255 247 243 238 235 235 238
nan nan nan nan nan nan nan nan nan nan nan nan nan nan nan nan nan nan nan nan nan nan nan nan nan nan nan nan 254 248 246 242 241 239 232 235 237 237 239 241 246 252 255 256 256 258 264 267 271 277 276 270 262 257 254 252 253 256 257 254 252 256 258 269 272 278 265 254 265 283 296 293 283 276 275 271 272 267 261 254 245 243 246 248 241 234
nan nan nan nan nan nan nan nan nan nan nan nan nan nan nan nan nan nan nan nan nan nan nan nan nan nan 237 243 242 247 247 247 245 241 237 236 237 237 237 239 243 246 250 253 254 259 261 258 257 258 260 256 252 254 254 256 266 275 274 268 264 267 257 264 276 290 283 269 265 271 294 301 291 277 271 268 269 264 258 252 245 249 257 260 248 237
nan nan nan nan nan nan nan nan nan nan nan nan nan nan nan nan nan nan nan nan nan nan nan nan nan nan nan 243 243 248 250 249 245 242 240 239 241 244 242 241 244 247 248 251 255 258 257 254 253 252 244 243 249 255 259 255 259 277 279 278 291 281 263 270 287 291 292 272 259 259 280 306 301 285 271 266 262 258 256 249 250 252 256 252 242 243
nan nan nan nan nan nan nan nan nan nan nan nan nan nan nan nan nan nan nan nan nan nan nan nan nan 240 252 252 250 250 248 248 247 245 244 242 244 246 245 243 244 246 248 250 253 256 257 258 257 259 258 253 262 268 273 281 279 280 278 271 268 276 270 265 276 282 275 263 257 254 264 299 307 290 273 262 256 251 249 252 256 254 253 249 249 252
nan nan nan nan nan nan nan nan nan nan nan nan nan nan nan nan nan nan nan nan nan nan nan nan 252 241 248 246 245 248 244 242 244 243 244 245 247 249 250 248 245 246 248 250 250 252 252 257 258 258 260 263 270 284 293 294 283 258 251 248 248 254 252 249 255 260 246 243 253 256 253 258 290 301 290 273 265 252 244 248 251 247 248 255 258 261
nan nan nan nan nan nan nan nan nan nan nan nan nan nan nan nan nan nan nan nan nan nan nan nan nan 260 254 253 241 246 247 246 245 238 240 242 243 248 252 254 250 246 245 248 250 250 252 254 257 255 252 259 271 281 271 259 252 245 229 223 230 232 229 229 233 240 242 240 242 245 246 244 259 309 300 277 266 253 251 246 238 236 242 255 258 258
nan nan nan nan nan nan nan nan nan nan nan nan nan nan nan nan nan nan nan nan nan nan nan nan 262 258 nan nan 251 249 251 250 250 245 240 238 243 246 250 252 254 253 249 240 239 241 240 242 245 245 244 241 260 264 269 266 242 233 229 226 231 231 223 213 222 234 238 242 245 247 243 243 251 274 290 269 253 246 255 244 224 230 246 253 254 250
nan nan nan nan nan nan nan nan nan nan nan nan nan nan nan nan nan nan nan nan nan nan nan nan nan nan nan 251 252 252 255 258 257 258 257 252 252 254 253 254 253 252 248 236 227 226 219 216 220 231 227 219 238 246 258 266 257 243 242 243 237 235 230 226 221 221 227 242 250 257 256 248 250 263 288 287 262 245 246 230 221 238 259 260 254 249
nan nan nan nan nan nan nan nan nan nan nan nan nan nan nan nan nan nan nan nan nan nan nan nan nan nan 251 246 251 252 256 260 265 268 268 263 257 254 253 250 246 241 237 230 229 238 234 221 216 217 225 228 233 233 244 265 271 264 252 258 266 265 261 260 254 247 297 294 260 263 270 264 254 260 276 289 273 252 238 224 232 249 263 259 258 255
nan nan nan nan nan nan nan nan nan nan nan nan nan nan nan nan nan nan nan nan nan nan nan nan nan 257 249 251 253 251 249 257 264 273 272 263 257 246 234 234 233 234 234 232 236 246 249 242 232 234 231 239 246 246 243 246 258 259 255 261 284 272 271 279 288 311 323 305 272 254 266 262 249 251 265 285 277 255 239 238 241 251 257 258 257 255
nan nan nan nan nan nan nan nan nan nan nan 224 223 210 217 nan nan nan nan nan nan nan nan nan 260 256 258 260 262 263 262 259 262 270 272 264 256 248 232 226 231 232 231 232 235 240 246 247 245 238 237 241 240 254 258 247 241 241 251 253 249 248 268 284 287 289 297 280 276 252 252 260 253 245 255 276 275 261 246 240 241 244 251 252 252 250
210 nan nan nan nan nan nan nan nan nan nan 214 213 214 218 222 220 nan nan 229 nan nan nan nan nan 258 261 262 263 268 267 260 255 259 269 260 251 246 238 236 239 nan 238 236 nan nan 238 241 245 246 242 236 236 239 244 254 253 250 257 261 262 260 257 280 279 283 283 282 280 284 275 269 263 252 253 268 269 267 248 238 236 240 248 248 247 nan
nan nan nan nan nan nan nan nan nan nan nan 212 nan nan nan 218 218 222 nan nan nan nan nan nan nan 256 261 262 262 260 259 254 249 254 254 247 246 247 237 235 236 237 239 238 237 nan nan nan nan 243 246 249 247 244 240 246 254 256 249 256 270 273 265 261 284 288 293 280 285 287 271 273 268 266 258 247 252 265 256 246 241 246 256 nan nan 244
nan nan nan nan nan nan nan nan nan nan nan nan nan nan nan 215 213 221 nan nan nan nan nan 247 250 256 265 263 257 255 258 254 242 nan nan nan 240 241 236 233 234 234 234 233 235 235 234 nan nan 240 244 248 nan 251 250 250 253 252 254 251 251 260 266 269 267 272 265 270 278 283 278 270 269 267 257 250 212 256 261 253 247 249 254 nan 243 244
225 nan 233 nan nan nan nan nan nan nan nan nan nan nan nan nan 224 nan nan nan nan nan 246 nan 260 264 264 264 264 263 260 254 243 238 nan nan nan nan 236 239 237 236 236 235 236 238 238 236 234 235 238 nan nan nan nan 253 247 246 250 249 250 254 257 265 268 258 275 293 289 285 295 296 267 258 267 240 211 243 261 255 250 249 252 248 244 243
nan nan nan 225 nan nan nan nan nan nan nan nan nan nan nan nan 230 236 236 nan 240 nan 249 250 267 nan 263 263 262 258 255 255 253 248 nan 238 nan nan nan nan 239 240 239 239 238 238 238 238 236 235 234 235 238 nan nan nan nan 246 247 251 249 251 253 259 271 268 280 289 288 289 288 285 265 251 256 244 220 243 255 254 252 252 247 251 nan 243
nan nan nan nan nan nan nan nan nan nan nan nan nan nan nan nan 228 235 229 nan nan nan nan 257 258 nan nan nan nan 256 255 255 nan nan nan nan nan nan 236 nan nan nan nan nan nan nan nan nan nan 241 240 239 239 240 241 244 nan nan nan nan 250 251 253 250 273 278 280 279 283 282 271 266 265 256 242 239 226 227 248 253 253 252 257 256 249 nan
nan nan nan nan nan 225 nan nan nan nan nan nan nan nan nan nan nan nan nan nan nan nan nan 254 256 nan nan nan nan nan nan nan nan nan nan nan nan nan 236 nan nan nan nan nan nan nan nan nan nan 247 247 245 244 244 244 246 246 nan nan nan nan nan 247 246 266 278 280 286 285 276 272 263 261 252 232 242 238 223 224 250 253 257 261 255 248 nan
nan nan nan nan nan nan nan nan nan nan nan nan nan nan nan nan nan nan nan nan nan nan 248 252 257 nan nan nan nan nan nan nan nan nan nan nan nan nan nan nan nan nan nan nan nan 244 nan nan nan nan nan 250 248 nan nan nan nan nan nan nan nan nan 245 247 246 251 281 290 288 282 276 269 267 254 236 238 235 225 236 254 254 253 253 nan nan nan
nan nan nan 225 nan nan nan nan nan nan nan nan nan nan nan nan nan nan nan nan nan nan nan 255 251 256 nan nan nan nan nan nan nan nan nan nan nan nan nan 239 nan nan 241 242 242 nan nan nan nan nan nan 251 nan nan nan nan nan nan nan nan nan 248 247 247 244 245 nan nan 274 276 273 272 265 248 236 240 231 225 246 255 252 255 259 nan nan nan
nan nan nan nan nan nan nan nan nan nan nan nan nan nan nan nan nan nan nan nan nan nan nan nan nan nan nan nan nan nan nan nan nan nan nan nan nan nan nan nan nan nan nan nan nan nan nan nan nan nan nan 255 nan nan nan nan nan nan nan nan nan nan 251 247 247 245 nan nan 250 264 266 260 248 233 228 225 220 224 248 255 257 260 nan nan nan nan
nan nan nan nan nan nan nan nan nan nan nan nan nan nan nan nan nan nan nan nan nan nan nan nan nan nan nan nan nan nan nan nan nan nan nan nan nan nan nan nan nan nan nan nan nan nan nan nan nan nan nan nan nan nan nan nan nan nan nan nan nan nan nan 253 247 244 239 238 238 241 246 239 232 229 230 230 223 229 246 253 255 nan nan nan nan nan
nan nan nan nan nan nan nan nan nan nan nan nan nan nan nan nan nan nan nan nan nan nan nan nan nan nan nan nan nan nan nan nan nan nan nan nan nan nan nan nan nan nan nan nan nan nan nan nan nan nan nan nan nan nan nan nan nan nan nan nan nan nan nan nan nan nan 235 231 nan 230 230 229 232 232 231 234 233 234 nan 251 nan nan nan nan nan nan
nan nan nan nan nan nan nan nan nan nan nan nan nan nan nan nan nan nan nan nan nan nan nan nan nan nan nan nan nan nan nan nan nan nan nan nan nan nan nan nan nan nan nan nan nan nan nan nan nan nan nan nan nan nan nan nan nan nan nan nan nan nan nan nan nan nan nan nan nan nan 225 224 233 235 229 nan nan nan nan nan nan nan nan nan nan nan
nan nan nan nan nan nan nan nan nan nan nan nan nan nan nan nan nan nan nan nan nan nan nan nan nan nan nan nan nan nan nan nan nan nan nan nan nan nan nan nan nan nan nan nan nan nan nan nan nan nan nan nan nan nan nan nan nan nan nan nan nan nan nan nan nan nan nan nan nan nan nan 223 226 234 nan nan nan nan nan nan nan nan nan nan nan nan
nan 245 nan nan nan nan nan nan nan nan nan nan nan nan nan nan nan nan nan nan nan nan nan nan nan nan nan nan nan nan nan nan nan nan nan nan nan nan nan nan nan nan nan nan nan nan nan nan nan nan nan nan nan nan nan nan nan nan nan nan nan nan nan nan nan nan nan nan nan nan nan 225 226 nan nan nan nan nan nan nan nan nan nan nan nan nan
nan nan nan nan nan nan nan nan nan nan nan nan nan nan nan nan nan nan nan nan nan nan nan nan nan nan nan nan nan nan nan nan nan nan nan nan nan nan nan nan nan nan nan nan nan nan nan nan nan nan nan nan nan nan nan nan nan nan nan nan nan nan nan nan nan nan nan nan nan nan nan nan nan nan nan nan nan nan nan nan nan nan nan nan nan nan
nan nan nan nan nan nan nan nan nan nan nan nan nan nan nan nan nan nan nan nan nan nan nan nan nan nan nan nan nan nan nan nan nan nan nan nan nan nan nan nan nan nan nan nan nan nan nan nan nan nan nan nan nan nan nan nan nan nan nan nan nan nan nan nan nan nan nan nan nan nan nan nan nan nan nan nan nan nan nan nan nan nan nan nan nan nan
nan nan nan nan nan nan nan nan nan nan nan nan nan nan nan nan nan nan nan nan nan nan nan nan nan nan nan nan nan nan nan nan nan nan nan nan nan nan nan nan nan nan nan nan nan nan nan nan nan nan nan nan nan nan nan nan nan nan nan nan nan nan nan nan nan nan nan nan nan nan nan nan nan nan nan nan nan nan nan nan nan nan nan nan nan nan
nan nan nan nan nan nan nan nan nan nan nan nan nan nan nan nan nan nan nan nan nan nan nan nan nan nan nan nan nan nan nan nan nan nan nan nan nan nan nan nan nan nan nan nan nan nan nan nan nan nan nan nan nan nan nan nan nan nan nan nan nan nan nan nan nan nan nan nan nan nan nan nan nan nan nan nan nan nan nan nan nan nan nan nan nan nan
nan nan nan nan nan nan nan nan nan nan nan nan nan nan nan nan nan nan nan nan nan nan nan nan nan nan nan nan nan nan nan nan nan nan nan nan nan nan nan nan nan nan nan nan nan nan nan nan nan nan nan nan nan nan nan nan nan nan nan nan nan nan nan nan nan nan nan nan nan nan nan nan nan nan nan nan nan nan nan nan nan nan nan nan nan nan
nan nan nan nan nan nan nan nan nan nan nan nan nan nan nan nan nan nan nan nan nan nan nan nan nan nan nan nan nan nan nan nan nan nan nan nan nan nan nan nan nan nan nan nan nan nan nan nan nan nan nan nan nan nan nan nan nan nan nan nan nan nan nan nan nan nan nan nan nan nan nan nan nan nan nan nan nan nan nan nan nan nan nan nan nan nan
nan nan nan nan nan nan nan nan nan nan nan nan nan nan nan nan nan nan nan nan nan nan nan nan nan nan nan nan nan nan nan nan nan nan nan nan nan nan nan nan nan nan nan nan nan nan nan nan nan nan nan nan nan nan nan nan nan nan nan nan nan nan nan nan nan nan nan nan nan nan nan nan nan nan nan nan nan nan nan nan nan nan nan nan nan nan
nan nan nan nan nan nan nan nan nan nan nan nan nan nan nan nan nan nan nan nan nan nan nan nan nan nan nan nan nan nan nan nan nan nan nan nan nan nan nan nan nan nan nan nan nan nan nan nan nan nan nan nan nan nan nan nan nan nan nan nan nan nan nan nan nan nan nan nan nan nan nan nan nan nan nan nan nan nan nan nan nan nan nan nan nan nan
nan nan nan nan nan nan nan nan nan nan nan nan nan nan nan nan nan nan nan nan nan nan nan nan nan nan nan nan nan nan nan nan nan nan nan nan nan nan nan nan nan nan nan nan nan nan nan nan nan nan nan nan nan nan nan nan nan nan nan nan nan nan nan nan nan nan nan nan nan nan nan nan nan nan nan nan nan nan nan nan nan nan nan nan nan nan
nan nan nan nan nan nan nan nan nan nan nan nan nan nan nan nan nan nan nan nan nan nan nan nan nan nan nan nan nan nan nan nan nan nan nan nan nan nan nan nan nan nan nan nan nan nan nan nan nan nan nan nan nan nan nan nan nan nan nan nan nan nan nan nan nan nan nan nan nan nan nan nan nan nan nan nan nan nan nan nan nan nan nan nan nan nan
nan nan nan nan nan nan nan nan nan nan nan nan nan nan nan nan nan nan nan nan nan nan nan nan nan nan nan nan nan nan nan nan nan nan nan nan nan nan nan nan nan nan nan nan nan nan nan nan nan nan nan nan nan nan nan nan nan nan nan nan nan nan nan nan nan nan nan nan nan nan nan nan nan nan nan nan nan nan nan nan nan nan nan nan nan nan
nan nan nan nan nan nan nan nan nan nan nan nan nan nan nan nan nan nan nan nan nan nan nan nan nan nan nan nan nan nan nan nan nan nan nan nan nan nan nan nan nan nan nan nan nan nan nan nan nan nan nan nan nan nan nan nan nan nan nan nan nan nan nan nan nan nan nan nan nan nan nan nan nan nan nan nan nan nan nan nan nan nan nan nan nan nan
nan nan nan nan nan nan nan nan nan nan nan nan nan nan nan nan nan nan nan nan nan nan nan nan nan nan nan nan nan nan nan nan nan nan nan nan nan nan nan nan nan nan nan nan nan nan nan nan nan nan nan nan nan nan nan nan nan nan nan nan nan nan nan nan nan nan nan nan nan nan nan nan nan nan nan nan nan nan nan nan nan nan nan nan nan nan